Little Rock AFB, AR

5:03 AM CDT on October 20, 2017 (GMT -0500)
Little Rock Air Force Base

Weather History for KLRF - January, 2013

Change the Weather History Date:

Saturday, January 5, 2013

  Actual Average Record
Temperature  
Mean Temperature 38 °F -  
Max Temperature 48 °F 47 °F 69 °F (2005)
Min Temperature 28 °F 27 °F 12 °F (1972)
Degree Days  
Heating Degree Days 27    
Moisture  
Dew Point 31 °F    
Average Humidity 80    
Maximum Humidity 93    
Minimum Humidity 52    
Precipitation  
Precipitation 0.00 in - - ()
Sea Level Pressure  
Sea Level Pressure 30.35 in    
Wind  
Wind Speed 1 mph (SSW)    
Max Wind Speed 9 mph    
Max Gust Speed -    
Visibility 10 miles    
Events Rain    
Averages and records for this station are not official NWS values.
T = Trace of Precipitation, MM = Missing Value Source: NWS Daily Summary

Daily Weather History Graph

Daily Weather History Graph

Search for Another Location

Airport or City:

Trip Planner

Search our weather history database for the weather conditions in past years. The results will help you decide how hot, cold, wet, or windy it might be!

Date:

Astronomy

Jan. 05, 2013 Rise Set
Actual Time 7:16 AM CST 5:11 PM CST
Civil Twilight 6:49 AM CST 5:39 PM CST
Nautical Twilight 6:17 AM CST 6:10 PM CST
Astronomical Twilight 5:46 AM CST 6:41 PM CST
Moon 12:31 AM CST (1/5) 11:54 AM CST (1/5)
Length of Visible Light 10h 50m
Length of Day
9h 54m
Last Quarter, 44% of the Moon is Illuminated
Jan 5
Last Quarter
Jan 11
New
Jan 18
First Quarter
Jan 26
Full
Feb 3
Last Quarter

Hourly Weather History & Observations

Time (CST) Temp. Windchill Dew Point Humidity Pressure Visibility Wind Dir Wind Speed Gust Speed Precip Events Conditions
12:55 AM 28.4 °F - 25.0 °F 87% 30.38 in 10.0 mi Calm Calm - N/A   Mostly Cloudy
1:55 AM 30.9 °F - 27.5 °F 87% 30.38 in 10.0 mi Calm Calm - N/A   Overcast
2:55 AM 32.4 °F - 28.4 °F 85% 30.36 in 10.0 mi Calm Calm - N/A   Overcast
3:55 AM 32.7 °F 29.6 °F 29.1 °F 87% 30.39 in 10.0 mi West 3.5 mph - N/A   Overcast
4:55 AM 34.0 °F 29.8 °F 30.2 °F 86% 30.39 in 10.0 mi WSW 4.6 mph - N/A   Overcast
5:27 AM 33.8 °F - 30.2 °F 87% 30.38 in 10.0 mi Calm Calm - N/A Rain Light Rain
5:37 AM 33.8 °F - 30.2 °F 87% 30.38 in 10.0 mi Calm Calm - N/A Rain Light Rain
5:49 AM 33.8 °F - 30.2 °F 87% 30.38 in 10.0 mi Calm Calm - N/A   Partly Cloudy
5:55 AM 34.2 °F - 30.7 °F 87% 30.38 in 10.0 mi Calm Calm - 0.00 in   Scattered Clouds
6:00 AM 33.8 °F - 32.0 °F 93% 30.40 in 10.0 mi Calm Calm - N/A Rain Light Rain
6:13 AM 33.8 °F - 32.0 °F 93% 30.41 in 10.0 mi Calm Calm - N/A   Mostly Cloudy
6:18 AM 33.8 °F - 32.0 °F 93% 30.40 in 10.0 mi Calm Calm - N/A Rain Light Rain
6:33 AM 33.8 °F - 32.0 °F 93% 30.40 in 10.0 mi Calm Calm - N/A   Overcast
6:55 AM 34.7 °F - 32.5 °F 92% 30.39 in 10.0 mi Calm Calm - 0.00 in   Overcast
7:20 AM 35.6 °F - 32.0 °F 87% 30.40 in 10.0 mi Calm Calm - N/A Rain Light Rain
7:32 AM 35.6 °F - 33.8 °F 93% 30.40 in 10.0 mi Calm Calm - N/A   Mostly Cloudy
7:55 AM 36.0 °F - 32.9 °F 89% 30.40 in 10.0 mi Calm Calm - 0.00 in   Mostly Cloudy
8:55 AM 37.9 °F 35.5 °F 33.6 °F 84% 30.38 in 10.0 mi NNE 3.5 mph - N/A   Mostly Cloudy
9:55 AM 41.0 °F - 33.8 °F 76% 30.39 in 10.0 mi Calm Calm - N/A Rain Light Rain
10:06 AM 42.8 °F - 33.8 °F 70% 30.38 in 10.0 mi Calm Calm - N/A   Overcast
10:55 AM 43.7 °F - 34.2 °F 69% 30.37 in 10.0 mi Calm Calm - 0.00 in   Overcast
11:55 AM 45.3 °F - 33.3 °F 63% 30.33 in 10.0 mi Calm Calm - N/A   Overcast
12:55 PM 47.1 °F - 32.5 °F 57% 30.29 in 10.0 mi SSE 5.8 mph - N/A   Overcast
1:55 PM 48.4 °F - 31.5 °F 52% 30.27 in 10.0 mi South 8.1 mph - N/A   Overcast
2:55 PM 48.9 °F - 32.2 °F 52% 30.26 in 10.0 mi SW 9.2 mph - N/A   Overcast
3:55 PM 48.2 °F - 33.3 °F 56% 30.27 in 10.0 mi South 6.9 mph - N/A   Overcast
4:55 PM 46.9 °F - 33.4 °F 59% 30.27 in 10.0 mi South 6.9 mph - N/A   Mostly Cloudy
5:55 PM 46.0 °F 43.9 °F 33.8 °F 62% 30.27 in 10.0 mi South 4.6 mph - N/A   Overcast
6:55 PM 43.9 °F 39.9 °F 33.8 °F 68% 30.27 in 10.0 mi South 6.9 mph - N/A   Clear
7:55 PM 41.5 °F 38.6 °F 33.4 °F 73% 30.27 in 10.0 mi SSW 4.6 mph - N/A   Clear
8:55 PM 36.1 °F 33.5 °F 31.3 °F 83% 30.28 in 10.0 mi WSW 3.5 mph - N/A   Clear
9:55 PM 32.0 °F - 29.1 °F 89% 30.28 in 10.0 mi Calm Calm - N/A   Clear
10:55 PM 30.4 °F - 28.2 °F 92% 30.29 in 10.0 mi Calm Calm - N/A   Clear
11:55 PM 29.7 °F - 27.9 °F 93% 30.29 in 10.0 mi Calm Calm - N/A   Clear